owner,sensor,date,latitude,longitude,vertical_datum,sea_water_temperature,qcFlag
Anadarko,ioos:station:wmo:42398:1,2020-10-01T00:01:00Z,26.1322,-92.0403,100.6,21.1,11111222
Anadarko,ioos:station:wmo:42398:1,2020-10-01T00:21:00Z,26.1322,-92.0403,100.6,21.2,11111222
Anadarko,ioos:station:wmo:42398:1,2020-10-01T00:41:00Z,26.1322,-92.0403,100.6,21.3,11111222
Anadarko,ioos:station:wmo:42398:1,2020-10-01T01:01:00Z,26.1322,-92.0403,100.6,21.3,11111222
Anadarko,ioos:station:wmo:42398:1,2020-10-01T01:21:00Z,26.1322,-92.0403,100.6,21.3,11111222
Anadarko,ioos:station:wmo:42398:1,2020-10-01T01:41:00Z,26.1322,-92.0403,100.6,21.3,11111222
Anadarko,ioos:station:wmo:42398:1,2020-10-01T02:01:00Z,26.1322,-92.0403,100.6,21.3,11111222
Anadarko,ioos:station:wmo:42398:1,2020-10-01T02:21:00Z,26.1322,-92.0403,100.6,21.3,11111222
Anadarko,ioos:station:wmo:42398:1,2020-10-01T02:41:00Z,26.1322,-92.0403,100.6,21.3,11111222
Anadarko,ioos:station:wmo:42398:1,2020-10-01T03:00:00Z,26.1322,-92.0403,100.6,21.3,11111222
Anadarko,ioos:station:wmo:42398:1,2020-10-01T03:20:00Z,26.1322,-92.0403,100.6,21.3,11111222
Anadarko,ioos:station:wmo:42398:1,2020-10-01T03:40:00Z,26.1322,-92.0403,100.6,21.3,11111222
Anadarko,ioos:station:wmo:42398:1,2020-10-01T04:00:00Z,26.1322,-92.0403,100.6,21.3,11111222
Anadarko,ioos:station:wmo:42398:1,2020-10-01T04:20:00Z,26.1322,-92.0403,100.6,21.3,11111222
Anadarko,ioos:station:wmo:42398:1,2020-10-01T04:39:00Z,26.1322,-92.0403,100.6,21.2,11111222
Anadarko,ioos:station:wmo:42398:1,2020-10-01T04:59:00Z,26.1322,-92.0403,100.6,21.3,11111222
Anadarko,ioos:station:wmo:42398:1,2020-10-01T05:18:00Z,26.1322,-92.0403,100.6,21.3,11111222
Anadarko,ioos:station:wmo:42398:1,2020-10-01T05:37:00Z,26.1322,-92.0403,100.6,21.3,11111222
Anadarko,ioos:station:wmo:42398:1,2020-10-01T05:57:00Z,26.1322,-92.0403,100.6,21.2,11111222
Anadarko,ioos:station:wmo:42398:1,2020-10-01T06:17:00Z,26.1322,-92.0403,100.6,21.2,11111222
Anadarko,ioos:station:wmo:42398:1,2020-10-01T06:37:00Z,26.1322,-92.0403,100.6,21.2,11111222
Anadarko,ioos:station:wmo:42398:1,2020-10-01T06:57:00Z,26.1322,-92.0403,100.6,21.3,11111222
Anadarko,ioos:station:wmo:42398:1,2020-10-01T07:17:00Z,26.1322,-92.0403,100.6,21.3,11111222
Anadarko,ioos:station:wmo:42398:1,2020-10-01T07:36:00Z,26.1322,-92.0403,100.6,21.2,11111222
Anadarko,ioos:station:wmo:42398:1,2020-10-01T07:56:00Z,26.1322,-92.0403,100.6,21.2,11111222
Anadarko,ioos:station:wmo:42398:1,2020-10-01T08:16:00Z,26.1322,-92.0403,100.6,21.2,11111222
Anadarko,ioos:station:wmo:42398:1,2020-10-01T08:36:00Z,26.1322,-92.0403,100.6,21.1,11111222
Anadarko,ioos:station:wmo:42398:1,2020-10-01T08:56:00Z,26.1322,-92.0403,100.6,21.0,11111222
Anadarko,ioos:station:wmo:42398:1,2020-10-01T09:16:00Z,26.1322,-92.0403,100.6,21.0,11111222
Anadarko,ioos:station:wmo:42398:1,2020-10-01T09:36:00Z,26.1322,-92.0403,100.6,20.9,11111222
Anadarko,ioos:station:wmo:42398:1,2020-10-01T09:56:00Z,26.1322,-92.0403,100.6,20.9,11111222
Anadarko,ioos:station:wmo:42398:1,2020-10-01T10:16:00Z,26.1322,-92.0403,100.6,20.9,11111222
Anadarko,ioos:station:wmo:42398:1,2020-10-01T10:36:00Z,26.1322,-92.0403,100.6,20.9,11111222
Anadarko,ioos:station:wmo:42398:1,2020-10-01T10:56:00Z,26.1322,-92.0403,100.6,20.9,11111222
Anadarko,ioos:station:wmo:42398:1,2020-10-01T11:16:00Z,26.1322,-92.0403,100.6,20.9,11111222
Anadarko,ioos:station:wmo:42398:1,2020-10-01T11:36:00Z,26.1322,-92.0403,100.6,21.0,11111222
Anadarko,ioos:station:wmo:42398:1,2020-10-01T11:56:00Z,26.1322,-92.0403,100.6,21.1,11111222
Anadarko,ioos:station:wmo:42398:1,2020-10-01T12:16:00Z,26.1322,-92.0403,100.6,21.1,11111222
Anadarko,ioos:station:wmo:42398:1,2020-10-01T12:36:00Z,26.1322,-92.0403,100.6,21.0,11111222
Anadarko,ioos:station:wmo:42398:1,2020-10-01T12:56:00Z,26.1322,-92.0403,100.6,20.9,11111222
Anadarko,ioos:station:wmo:42398:1,2020-10-01T13:16:00Z,26.1322,-92.0403,100.6,21.1,11111222
Anadarko,ioos:station:wmo:42398:1,2020-10-01T13:36:00Z,26.1322,-92.0403,100.6,21.2,11111222
Anadarko,ioos:station:wmo:42398:1,2020-10-01T13:55:00Z,26.1322,-92.0403,100.6,21.2,11111222
Anadarko,ioos:station:wmo:42398:1,2020-10-01T14:15:00Z,26.1322,-92.0403,100.6,21.2,11111222
Anadarko,ioos:station:wmo:42398:1,2020-10-01T14:35:00Z,26.1322,-92.0403,100.6,21.1,11111222
Anadarko,ioos:station:wmo:42398:1,2020-10-01T14:55:00Z,26.1322,-92.0403,100.6,21.1,11111222
Anadarko,ioos:station:wmo:42398:1,2020-10-01T15:14:00Z,26.1322,-92.0403,100.6,21.1,11111222
Anadarko,ioos:station:wmo:42398:1,2020-10-01T15:34:00Z,26.1322,-92.0403,100.6,21.2,11111222
Anadarko,ioos:station:wmo:42398:1,2020-10-01T15:53:00Z,26.1322,-92.0403,100.6,21.3,11111222
Anadarko,ioos:station:wmo:42398:1,2020-10-01T16:13:00Z,26.1322,-92.0403,100.6,21.3,11111222
Anadarko,ioos:station:wmo:42398:1,2020-10-01T16:33:00Z,26.1322,-92.0403,100.6,21.4,11111222
Anadarko,ioos:station:wmo:42398:1,2020-10-01T16:53:00Z,26.1322,-92.0403,100.6,21.4,11111222
Anadarko,ioos:station:wmo:42398:1,2020-10-01T17:12:00Z,26.1322,-92.0403,100.6,21.4,11111222
Anadarko,ioos:station:wmo:42398:1,2020-10-01T17:32:00Z,26.1322,-92.0403,100.6,21.3,11111222
Anadarko,ioos:station:wmo:42398:1,2020-10-01T17:52:00Z,26.1322,-92.0403,100.6,21.4,11111222
Anadarko,ioos:station:wmo:42398:1,2020-10-01T18:12:00Z,26.1322,-92.0403,100.6,21.4,11111222
Anadarko,ioos:station:wmo:42398:1,2020-10-01T18:32:00Z,26.1322,-92.0403,100.6,21.4,11111222
Anadarko,ioos:station:wmo:42398:1,2020-10-01T18:52:00Z,26.1322,-92.0403,100.6,21.4,11111222
Anadarko,ioos:station:wmo:42398:1,2020-10-01T19:12:00Z,26.1322,-92.0403,100.6,21.4,11111222
Anadarko,ioos:station:wmo:42398:1,2020-10-01T19:32:00Z,26.1322,-92.0403,100.6,21.5,11111222
Anadarko,ioos:station:wmo:42398:1,2020-10-01T19:52:00Z,26.1322,-92.0403,100.6,21.5,11111222
Anadarko,ioos:station:wmo:42398:1,2020-10-01T20:12:00Z,26.1322,-92.0403,100.6,21.5,11111222
Anadarko,ioos:station:wmo:42398:1,2020-10-01T20:32:00Z,26.1322,-92.0403,100.6,21.5,11111222
Anadarko,ioos:station:wmo:42398:1,2020-10-01T20:52:00Z,26.1322,-92.0403,100.6,21.4,11111222
Anadarko,ioos:station:wmo:42398:1,2020-10-01T21:12:00Z,26.1322,-92.0403,100.6,21.4,11111222
Anadarko,ioos:station:wmo:42398:1,2020-10-01T21:32:00Z,26.1322,-92.0403,100.6,21.4,11111222
Anadarko,ioos:station:wmo:42398:1,2020-10-01T21:52:00Z,26.1322,-92.0403,100.6,21.4,11111222
Anadarko,ioos:station:wmo:42398:1,2020-10-01T22:12:00Z,26.1322,-92.0403,100.6,21.3,11111222
Anadarko,ioos:station:wmo:42398:1,2020-10-01T22:32:00Z,26.1322,-92.0403,100.6,21.3,11111222
Anadarko,ioos:station:wmo:42398:1,2020-10-01T22:52:00Z,26.1322,-92.0403,100.6,21.2,11111222
Anadarko,ioos:station:wmo:42398:1,2020-10-01T23:12:00Z,26.1322,-92.0403,100.6,21.2,11111222
Anadarko,ioos:station:wmo:42398:1,2020-10-01T23:32:00Z,26.1322,-92.0403,100.6,21.2,11111222
Anadarko,ioos:station:wmo:42398:1,2020-10-01T23:52:00Z,26.1322,-92.0403,100.6,21.1,11111222
Anadarko,ioos:station:wmo:42398:1,2020-10-02T00:12:00Z,26.1322,-92.0403,100.6,21.1,11111222
Anadarko,ioos:station:wmo:42398:1,2020-10-02T00:32:00Z,26.1322,-92.0403,100.6,21.1,11111222
Anadarko,ioos:station:wmo:42398:1,2020-10-02T00:52:00Z,26.1322,-92.0403,100.6,21.0,11111222
Anadarko,ioos:station:wmo:42398:1,2020-10-02T01:12:00Z,26.1322,-92.0403,100.6,21.1,11111222
Anadarko,ioos:station:wmo:42398:1,2020-10-02T01:32:00Z,26.1322,-92.0403,100.6,21.1,11111222
Anadarko,ioos:station:wmo:42398:1,2020-10-02T01:52:00Z,26.1322,-92.0403,100.6,21.2,11111222
Anadarko,ioos:station:wmo:42398:1,2020-10-02T02:12:00Z,26.1322,-92.0403,100.6,21.3,11111222
Anadarko,ioos:station:wmo:42398:1,2020-10-02T02:32:00Z,26.1322,-92.0403,100.6,21.5,11111222
Anadarko,ioos:station:wmo:42398:1,2020-10-02T02:51:00Z,26.1322,-92.0403,100.6,21.6,11111222
Anadarko,ioos:station:wmo:42398:1,2020-10-02T03:11:00Z,26.1322,-92.0403,100.6,21.6,11111222
Anadarko,ioos:station:wmo:42398:1,2020-10-02T03:31:00Z,26.1322,-92.0403,100.6,21.6,11111222
Anadarko,ioos:station:wmo:42398:1,2020-10-02T03:51:00Z,26.1322,-92.0403,100.6,21.6,11111222
Anadarko,ioos:station:wmo:42398:1,2020-10-02T04:11:00Z,26.1322,-92.0403,100.6,21.5,11111222
Anadarko,ioos:station:wmo:42398:1,2020-10-02T04:31:00Z,26.1322,-92.0403,100.6,21.4,11111222
Anadarko,ioos:station:wmo:42398:1,2020-10-02T04:51:00Z,26.1322,-92.0403,100.6,21.4,11111222
Anadarko,ioos:station:wmo:42398:1,2020-10-02T05:11:00Z,26.1322,-92.0403,100.6,21.4,11111222
Anadarko,ioos:station:wmo:42398:1,2020-10-02T05:31:00Z,26.1322,-92.0403,100.6,21.5,11111222
Anadarko,ioos:station:wmo:42398:1,2020-10-02T05:51:00Z,26.1322,-92.0403,100.6,21.5,11111222
Anadarko,ioos:station:wmo:42398:1,2020-10-02T06:11:00Z,26.1322,-92.0403,100.6,21.5,11111222
Anadarko,ioos:station:wmo:42398:1,2020-10-02T06:31:00Z,26.1322,-92.0403,100.6,21.6,11111222
Anadarko,ioos:station:wmo:42398:1,2020-10-02T06:51:00Z,26.1322,-92.0403,100.6,21.6,11111222
Anadarko,ioos:station:wmo:42398:1,2020-10-02T07:11:00Z,26.1322,-92.0403,100.6,21.6,11111222
Anadarko,ioos:station:wmo:42398:1,2020-10-02T07:31:00Z,26.1322,-92.0403,100.6,21.6,11111222
Anadarko,ioos:station:wmo:42398:1,2020-10-02T07:51:00Z,26.1322,-92.0403,100.6,21.7,11111222
Anadarko,ioos:station:wmo:42398:1,2020-10-02T08:11:00Z,26.1322,-92.0403,100.6,21.8,11111222
Anadarko,ioos:station:wmo:42398:1,2020-10-02T08:31:00Z,26.1322,-92.0403,100.6,21.7,11111222
Anadarko,ioos:station:wmo:42398:1,2020-10-02T08:51:00Z,26.1322,-92.0403,100.6,21.7,11111222
Anadarko,ioos:station:wmo:42398:1,2020-10-02T09:11:00Z,26.1322,-92.0403,100.6,21.7,11111222
Anadarko,ioos:station:wmo:42398:1,2020-10-02T09:31:00Z,26.1322,-92.0403,100.6,21.8,11111222
Anadarko,ioos:station:wmo:42398:1,2020-10-02T09:51:00Z,26.1322,-92.0403,100.6,21.9,11111222
Anadarko,ioos:station:wmo:42398:1,2020-10-02T10:10:00Z,26.1322,-92.0403,100.6,22.0,11111222
Anadarko,ioos:station:wmo:42398:1,2020-10-02T10:30:00Z,26.1322,-92.0403,100.6,22.0,11111222
Anadarko,ioos:station:wmo:42398:1,2020-10-02T10:49:00Z,26.1322,-92.0403,100.6,22.0,11111222
Anadarko,ioos:station:wmo:42398:1,2020-10-02T11:09:00Z,26.1322,-92.0403,100.6,22.1,11111222
Anadarko,ioos:station:wmo:42398:1,2020-10-02T11:29:00Z,26.1322,-92.0403,100.6,22.1,11111222
Anadarko,ioos:station:wmo:42398:1,2020-10-02T11:49:00Z,26.1322,-92.0403,100.6,22.2,11111222
Anadarko,ioos:station:wmo:42398:1,2020-10-02T12:09:00Z,26.1322,-92.0403,100.6,22.1,11111222
Anadarko,ioos:station:wmo:42398:1,2020-10-02T12:29:00Z,26.1322,-92.0403,100.6,22.0,11111222
Anadarko,ioos:station:wmo:42398:1,2020-10-02T12:49:00Z,26.1322,-92.0403,100.6,22.0,11111222
Anadarko,ioos:station:wmo:42398:1,2020-10-02T13:09:00Z,26.1322,-92.0403,100.6,22.0,11111222
Anadarko,ioos:station:wmo:42398:1,2020-10-02T13:29:00Z,26.1322,-92.0403,100.6,22.0,11111222
Anadarko,ioos:station:wmo:42398:1,2020-10-02T13:49:00Z,26.1322,-92.0403,100.6,22.0,11111222
Anadarko,ioos:station:wmo:42398:1,2020-10-02T14:09:00Z,26.1322,-92.0403,100.6,22.0,11111222
Anadarko,ioos:station:wmo:42398:1,2020-10-02T14:29:00Z,26.1322,-92.0403,100.6,22.0,11111222
Anadarko,ioos:station:wmo:42398:1,2020-10-02T14:49:00Z,26.1322,-92.0403,100.6,21.9,11111222
Anadarko,ioos:station:wmo:42398:1,2020-10-02T15:09:00Z,26.1322,-92.0403,100.6,21.9,11111222
Anadarko,ioos:station:wmo:42398:1,2020-10-02T15:29:00Z,26.1322,-92.0403,100.6,21.8,11111222
Anadarko,ioos:station:wmo:42398:1,2020-10-02T15:49:00Z,26.1322,-92.0403,100.6,21.8,11111222
Anadarko,ioos:station:wmo:42398:1,2020-10-02T16:09:00Z,26.1322,-92.0403,100.6,21.8,11111222
Anadarko,ioos:station:wmo:42398:1,2020-10-02T16:28:00Z,26.1322,-92.0403,100.6,21.8,11111222
Anadarko,ioos:station:wmo:42398:1,2020-10-02T16:47:00Z,26.1322,-92.0403,100.6,21.8,11111222
Anadarko,ioos:station:wmo:42398:1,2020-10-02T17:06:00Z,26.1322,-92.0403,100.6,21.7,11111222
Anadarko,ioos:station:wmo:42398:1,2020-10-02T17:26:00Z,26.1322,-92.0403,100.6,21.7,11111222
Anadarko,ioos:station:wmo:42398:1,2020-10-02T17:46:00Z,26.1322,-92.0403,100.6,21.6,11111222
Anadarko,ioos:station:wmo:42398:1,2020-10-02T18:05:00Z,26.1322,-92.0403,100.6,21.7,11111222
Anadarko,ioos:station:wmo:42398:1,2020-10-02T18:24:00Z,26.1322,-92.0403,100.6,21.6,11111222
Anadarko,ioos:station:wmo:42398:1,2020-10-02T18:44:00Z,26.1322,-92.0403,100.6,21.6,11111222
Anadarko,ioos:station:wmo:42398:1,2020-10-02T19:04:00Z,26.1322,-92.0403,100.6,21.6,11111222
Anadarko,ioos:station:wmo:42398:1,2020-10-02T19:24:00Z,26.1322,-92.0403,100.6,21.5,11111222
Anadarko,ioos:station:wmo:42398:1,2020-10-02T19:44:00Z,26.1322,-92.0403,100.6,21.6,11111222
Anadarko,ioos:station:wmo:42398:1,2020-10-02T20:04:00Z,26.1322,-92.0403,100.6,21.6,11111222
Anadarko,ioos:station:wmo:42398:1,2020-10-02T20:24:00Z,26.1322,-92.0403,100.6,21.6,11111222
Anadarko,ioos:station:wmo:42398:1,2020-10-02T20:43:00Z,26.1322,-92.0403,100.6,21.6,11111222
Anadarko,ioos:station:wmo:42398:1,2020-10-02T21:03:00Z,26.1322,-92.0403,100.6,21.6,11111222
Anadarko,ioos:station:wmo:42398:1,2020-10-02T21:22:00Z,26.1322,-92.0403,100.6,21.6,11111222
Anadarko,ioos:station:wmo:42398:1,2020-10-02T21:41:00Z,26.1322,-92.0403,100.6,21.6,11111222
Anadarko,ioos:station:wmo:42398:1,2020-10-02T22:00:00Z,26.1322,-92.0403,100.6,21.6,11111222
Anadarko,ioos:station:wmo:42398:1,2020-10-02T22:20:00Z,26.1322,-92.0403,100.6,21.6,11111222
Anadarko,ioos:station:wmo:42398:1,2020-10-02T22:40:00Z,26.1322,-92.0403,100.6,21.6,11111222
Anadarko,ioos:station:wmo:42398:1,2020-10-02T23:00:00Z,26.1322,-92.0403,100.6,21.6,11111222
Anadarko,ioos:station:wmo:42398:1,2020-10-02T23:20:00Z,26.1322,-92.0403,100.6,21.6,11111222
Anadarko,ioos:station:wmo:42398:1,2020-10-02T23:40:00Z,26.1322,-92.0403,100.6,21.6,11111222
Anadarko,ioos:station:wmo:42398:1,2020-10-03T00:00:00Z,26.1322,-92.0403,100.6,21.6,11111222
Anadarko,ioos:station:wmo:42398:1,2020-10-03T00:20:00Z,26.1322,-92.0403,100.6,21.6,11111222
Anadarko,ioos:station:wmo:42398:1,2020-10-03T00:40:00Z,26.1322,-92.0403,100.6,21.6,11111222
Anadarko,ioos:station:wmo:42398:1,2020-10-03T01:00:00Z,26.1322,-92.0403,100.6,21.6,11111222
Anadarko,ioos:station:wmo:42398:1,2020-10-03T01:20:00Z,26.1322,-92.0403,100.6,21.6,11111222
Anadarko,ioos:station:wmo:42398:1,2020-10-03T01:40:00Z,26.1322,-92.0403,100.6,21.6,11111222
Anadarko,ioos:station:wmo:42398:1,2020-10-03T02:00:00Z,26.1322,-92.0403,100.6,21.6,11111222
Anadarko,ioos:station:wmo:42398:1,2020-10-03T02:20:00Z,26.1322,-92.0403,100.6,21.7,11111222
Anadarko,ioos:station:wmo:42398:1,2020-10-03T02:40:00Z,26.1322,-92.0403,100.6,21.7,11111222
Anadarko,ioos:station:wmo:42398:1,2020-10-03T02:59:00Z,26.1322,-92.0403,100.6,21.6,11111222
Anadarko,ioos:station:wmo:42398:1,2020-10-03T03:18:00Z,26.1322,-92.0403,100.6,21.6,11111222
Anadarko,ioos:station:wmo:42398:1,2020-10-03T03:37:00Z,26.1322,-92.0403,100.6,21.7,11111222
Anadarko,ioos:station:wmo:42398:1,2020-10-03T03:57:00Z,26.1322,-92.0403,100.6,21.6,11111222
Anadarko,ioos:station:wmo:42398:1,2020-10-03T04:17:00Z,26.1322,-92.0403,100.6,21.6,11111222
Anadarko,ioos:station:wmo:42398:1,2020-10-03T04:37:00Z,26.1322,-92.0403,100.6,21.6,11111222
Anadarko,ioos:station:wmo:42398:1,2020-10-03T04:57:00Z,26.1322,-92.0403,100.6,21.6,11111222
Anadarko,ioos:station:wmo:42398:1,2020-10-03T05:17:00Z,26.1322,-92.0403,100.6,21.6,11111222
Anadarko,ioos:station:wmo:42398:1,2020-10-03T05:37:00Z,26.1322,-92.0403,100.6,21.6,11111222
Anadarko,ioos:station:wmo:42398:1,2020-10-03T05:57:00Z,26.1322,-92.0403,100.6,21.6,11111222
Anadarko,ioos:station:wmo:42398:1,2020-10-03T06:17:00Z,26.1322,-92.0403,100.6,21.6,11111222
Anadarko,ioos:station:wmo:42398:1,2020-10-03T06:36:00Z,26.1322,-92.0403,100.6,21.6,11111222
Anadarko,ioos:station:wmo:42398:1,2020-10-03T06:55:00Z,26.1322,-92.0403,100.6,21.6,11111222
Anadarko,ioos:station:wmo:42398:1,2020-10-03T07:15:00Z,26.1322,-92.0403,100.6,21.6,11111222
Anadarko,ioos:station:wmo:42398:1,2020-10-03T07:35:00Z,26.1322,-92.0403,100.6,21.6,11111222
Anadarko,ioos:station:wmo:42398:1,2020-10-03T07:55:00Z,26.1322,-92.0403,100.6,21.6,11111222
Anadarko,ioos:station:wmo:42398:1,2020-10-03T08:15:00Z,26.1322,-92.0403,100.6,21.6,11111222
Anadarko,ioos:station:wmo:42398:1,2020-10-03T08:35:00Z,26.1322,-92.0403,100.6,21.5,11111222
Anadarko,ioos:station:wmo:42398:1,2020-10-03T08:55:00Z,26.1322,-92.0403,100.6,21.5,11111222
Anadarko,ioos:station:wmo:42398:1,2020-10-03T09:15:00Z,26.1322,-92.0403,100.6,21.5,11111222
Anadarko,ioos:station:wmo:42398:1,2020-10-03T09:35:00Z,26.1322,-92.0403,100.6,21.5,11111222
Anadarko,ioos:station:wmo:42398:1,2020-10-03T09:55:00Z,26.1322,-92.0403,100.6,21.5,11111222
Anadarko,ioos:station:wmo:42398:1,2020-10-03T10:15:00Z,26.1322,-92.0403,100.6,21.6,11111222
Anadarko,ioos:station:wmo:42398:1,2020-10-03T10:35:00Z,26.1322,-92.0403,100.6,21.6,11111222
Anadarko,ioos:station:wmo:42398:1,2020-10-03T10:55:00Z,26.1322,-92.0403,100.6,21.6,11111222
Anadarko,ioos:station:wmo:42398:1,2020-10-03T11:15:00Z,26.1322,-92.0403,100.6,21.6,11111222
Anadarko,ioos:station:wmo:42398:1,2020-10-03T11:35:00Z,26.1322,-92.0403,100.6,21.6,11111222
Anadarko,ioos:station:wmo:42398:1,2020-10-03T11:55:00Z,26.1322,-92.0403,100.6,21.6,11111222
Anadarko,ioos:station:wmo:42398:1,2020-10-03T12:15:00Z,26.1322,-92.0403,100.6,21.7,11111222
Anadarko,ioos:station:wmo:42398:1,2020-10-03T12:35:00Z,26.1322,-92.0403,100.6,21.7,11111222
Anadarko,ioos:station:wmo:42398:1,2020-10-03T12:55:00Z,26.1322,-92.0403,100.6,21.7,11111222
Anadarko,ioos:station:wmo:42398:1,2020-10-03T13:15:00Z,26.1322,-92.0403,100.6,21.7,11111222
Anadarko,ioos:station:wmo:42398:1,2020-10-03T13:35:00Z,26.1322,-92.0403,100.6,21.6,11111222
Anadarko,ioos:station:wmo:42398:1,2020-10-03T13:55:00Z,26.1322,-92.0403,100.6,21.6,11111222
Anadarko,ioos:station:wmo:42398:1,2020-10-03T14:15:00Z,26.1322,-92.0403,100.6,21.7,11111222
Anadarko,ioos:station:wmo:42398:1,2020-10-03T14:35:00Z,26.1322,-92.0403,100.6,21.8,11111222
Anadarko,ioos:station:wmo:42398:1,2020-10-03T14:55:00Z,26.1322,-92.0403,100.6,21.9,11111222
Anadarko,ioos:station:wmo:42398:1,2020-10-03T15:15:00Z,26.1322,-92.0403,100.6,21.8,11111222
Anadarko,ioos:station:wmo:42398:1,2020-10-03T15:35:00Z,26.1322,-92.0403,100.6,21.6,11111222
Anadarko,ioos:station:wmo:42398:1,2020-10-03T15:55:00Z,26.1322,-92.0403,100.6,21.6,11111222
Anadarko,ioos:station:wmo:42398:1,2020-10-03T16:15:00Z,26.1322,-92.0403,100.6,21.8,11111222
Anadarko,ioos:station:wmo:42398:1,2020-10-03T16:35:00Z,26.1322,-92.0403,100.6,21.8,11111222
Anadarko,ioos:station:wmo:42398:1,2020-10-03T16:55:00Z,26.1322,-92.0403,100.6,21.8,11111222
Anadarko,ioos:station:wmo:42398:1,2020-10-03T17:15:00Z,26.1322,-92.0403,100.6,21.7,11111222
Anadarko,ioos:station:wmo:42398:1,2020-10-03T17:35:00Z,26.1322,-92.0403,100.6,21.8,11111222
Anadarko,ioos:station:wmo:42398:1,2020-10-03T17:55:00Z,26.1322,-92.0403,100.6,21.8,11111222
Anadarko,ioos:station:wmo:42398:1,2020-10-03T18:15:00Z,26.1322,-92.0403,100.6,21.8,11111222
Anadarko,ioos:station:wmo:42398:1,2020-10-03T18:35:00Z,26.1322,-92.0403,100.6,21.8,11111222
Anadarko,ioos:station:wmo:42398:1,2020-10-03T18:55:00Z,26.1322,-92.0403,100.6,21.8,11111222
Anadarko,ioos:station:wmo:42398:1,2020-10-03T19:15:00Z,26.1322,-92.0403,100.6,21.8,11111222
Anadarko,ioos:station:wmo:42398:1,2020-10-03T19:35:00Z,26.1322,-92.0403,100.6,21.8,11111222
Anadarko,ioos:station:wmo:42398:1,2020-10-03T19:55:00Z,26.1322,-92.0403,100.6,21.9,11111222
Anadarko,ioos:station:wmo:42398:1,2020-10-03T20:15:00Z,26.1322,-92.0403,100.6,22.0,11111222
Anadarko,ioos:station:wmo:42398:1,2020-10-03T20:35:00Z,26.1322,-92.0403,100.6,21.9,11111222
Anadarko,ioos:station:wmo:42398:1,2020-10-03T20:55:00Z,26.1322,-92.0403,100.6,21.9,11111222
Anadarko,ioos:station:wmo:42398:1,2020-10-03T21:15:00Z,26.1322,-92.0403,100.6,22.0,11111222
Anadarko,ioos:station:wmo:42398:1,2020-10-03T21:35:00Z,26.1322,-92.0403,100.6,22.0,11111222
Anadarko,ioos:station:wmo:42398:1,2020-10-03T21:55:00Z,26.1322,-92.0403,100.6,21.9,11111222
Anadarko,ioos:station:wmo:42398:1,2020-10-03T22:15:00Z,26.1322,-92.0403,100.6,21.9,11111222
Anadarko,ioos:station:wmo:42398:1,2020-10-03T22:35:00Z,26.1322,-92.0403,100.6,21.8,11111222
Anadarko,ioos:station:wmo:42398:1,2020-10-03T22:55:00Z,26.1322,-92.0403,100.6,21.8,11111222
Anadarko,ioos:station:wmo:42398:1,2020-10-03T23:15:00Z,26.1322,-92.0403,100.6,21.8,11111222
Anadarko,ioos:station:wmo:42398:1,2020-10-03T23:34:00Z,26.1322,-92.0403,100.6,21.9,11111222
Anadarko,ioos:station:wmo:42398:1,2020-10-03T23:54:00Z,26.1322,-92.0403,100.6,21.9,11111222
Anadarko,ioos:station:wmo:42398:1,2020-10-04T00:14:00Z,26.1322,-92.0403,100.6,21.9,11111222
Anadarko,ioos:station:wmo:42398:1,2020-10-04T00:34:00Z,26.1322,-92.0403,100.6,21.9,11111222
Anadarko,ioos:station:wmo:42398:1,2020-10-04T00:54:00Z,26.1322,-92.0403,100.6,21.9,11111222
Anadarko,ioos:station:wmo:42398:1,2020-10-04T01:14:00Z,26.1322,-92.0403,100.6,21.9,11111222
Anadarko,ioos:station:wmo:42398:1,2020-10-04T01:34:00Z,26.1322,-92.0403,100.6,21.8,11111222
Anadarko,ioos:station:wmo:42398:1,2020-10-04T01:54:00Z,26.1322,-92.0403,100.6,21.9,11111222
Anadarko,ioos:station:wmo:42398:1,2020-10-04T02:14:00Z,26.1322,-92.0403,100.6,21.9,11111222
Anadarko,ioos:station:wmo:42398:1,2020-10-04T02:34:00Z,26.1322,-92.0403,100.6,21.9,11111222
Anadarko,ioos:station:wmo:42398:1,2020-10-04T02:54:00Z,26.1322,-92.0403,100.6,21.7,11111222
Anadarko,ioos:station:wmo:42398:1,2020-10-04T03:14:00Z,26.1322,-92.0403,100.6,21.8,11111222
Anadarko,ioos:station:wmo:42398:1,2020-10-04T03:34:00Z,26.1322,-92.0403,100.6,21.8,11111222
Anadarko,ioos:station:wmo:42398:1,2020-10-04T03:54:00Z,26.1322,-92.0403,100.6,21.8,11111222
Anadarko,ioos:station:wmo:42398:1,2020-10-04T04:14:00Z,26.1322,-92.0403,100.6,21.8,11111222
Anadarko,ioos:station:wmo:42398:1,2020-10-04T04:34:00Z,26.1322,-92.0403,100.6,21.8,11111222
Anadarko,ioos:station:wmo:42398:1,2020-10-04T04:54:00Z,26.1322,-92.0403,100.6,21.8,11111222
Anadarko,ioos:station:wmo:42398:1,2020-10-04T05:14:00Z,26.1322,-92.0403,100.6,21.8,11111222
Anadarko,ioos:station:wmo:42398:1,2020-10-04T05:34:00Z,26.1322,-92.0403,100.6,21.8,11111222
Anadarko,ioos:station:wmo:42398:1,2020-10-04T05:54:00Z,26.1322,-92.0403,100.6,21.8,11111222
Anadarko,ioos:station:wmo:42398:1,2020-10-04T06:14:00Z,26.1322,-92.0403,100.6,21.8,11111222
Anadarko,ioos:station:wmo:42398:1,2020-10-04T06:34:00Z,26.1322,-92.0403,100.6,21.8,11111222
Anadarko,ioos:station:wmo:42398:1,2020-10-04T06:54:00Z,26.1322,-92.0403,100.6,21.8,11111222
Anadarko,ioos:station:wmo:42398:1,2020-10-04T07:14:00Z,26.1322,-92.0403,100.6,21.8,11111222
Anadarko,ioos:station:wmo:42398:1,2020-10-04T07:34:00Z,26.1322,-92.0403,100.6,21.8,11111222
Anadarko,ioos:station:wmo:42398:1,2020-10-04T07:54:00Z,26.1322,-92.0403,100.6,21.9,11111222
Anadarko,ioos:station:wmo:42398:1,2020-10-04T08:14:00Z,26.1322,-92.0403,100.6,21.8,11111222
Anadarko,ioos:station:wmo:42398:1,2020-10-04T08:34:00Z,26.1322,-92.0403,100.6,21.8,11111222
Anadarko,ioos:station:wmo:42398:1,2020-10-04T08:54:00Z,26.1322,-92.0403,100.6,21.7,11111222
Anadarko,ioos:station:wmo:42398:1,2020-10-04T09:14:00Z,26.1322,-92.0403,100.6,21.6,11111222
Anadarko,ioos:station:wmo:42398:1,2020-10-04T09:34:00Z,26.1322,-92.0403,100.6,21.6,11111222
Anadarko,ioos:station:wmo:42398:1,2020-10-04T09:53:00Z,26.1322,-92.0403,100.6,21.7,11111222
Anadarko,ioos:station:wmo:42398:1,2020-10-04T10:13:00Z,26.1322,-92.0403,100.6,21.6,11111222
Anadarko,ioos:station:wmo:42398:1,2020-10-04T10:33:00Z,26.1322,-92.0403,100.6,21.6,11111222
Anadarko,ioos:station:wmo:42398:1,2020-10-04T10:53:00Z,26.1322,-92.0403,100.6,21.6,11111222
Anadarko,ioos:station:wmo:42398:1,2020-10-04T11:13:00Z,26.1322,-92.0403,100.6,21.7,11111222
Anadarko,ioos:station:wmo:42398:1,2020-10-04T11:33:00Z,26.1322,-92.0403,100.6,21.8,11111222
Anadarko,ioos:station:wmo:42398:1,2020-10-04T11:53:00Z,26.1322,-92.0403,100.6,21.8,11111222
Anadarko,ioos:station:wmo:42398:1,2020-10-04T12:13:00Z,26.1322,-92.0403,100.6,21.7,11111222
Anadarko,ioos:station:wmo:42398:1,2020-10-04T12:33:00Z,26.1322,-92.0403,100.6,21.7,11111222
Anadarko,ioos:station:wmo:42398:1,2020-10-04T12:53:00Z,26.1322,-92.0403,100.6,21.7,11111222